Weather History for KOKK - October, 2012

Change the Weather History Date:

Thursday, October 25, 2012

  Actual Average (KGUS) Record (KGUS)
Temperature  
Mean Temperature 65 °F -  
Max Temperature 77 °F 57 °F 76 °F (2012)
Min Temperature 51 °F 40 °F 25 °F (2013)
Growing Degree Days 15 (Base 50)    
Moisture  
Dew Point 54 °F    
Average Humidity 69    
Maximum Humidity 82    
Minimum Humidity 50    
Precipitation  
Precipitation 0.00 in - - ()
Sea Level Pressure  
Sea Level Pressure 29.91 in    
Wind  
Wind Speed 12 mph (SSW)    
Max Wind Speed 22 mph    
Max Gust Speed 31 mph    
Visibility 10 miles    
Events      
Averages and records for this station are not official NWS values.
T = Trace of Precipitation, MM = Missing Value Source: NWS Daily Summary

Daily Weather History Graph

Daily Weather History Graph

Search for Another Location

Airport or City:

Trip Planner

Search our weather history database for the weather conditions in past years. The results will help you decide how hot, cold, wet, or windy it might be!

Date:

Astronomy

Oct. 25, 2012 Rise Set
Actual Time 7:06 AM CDT 5:49 PM CDT
Civil Twilight 6:38 AM CDT 6:17 PM CDT
Nautical Twilight 6:06 AM CDT 6:48 PM CDT
Astronomical Twilight 5:35 AM CDT 7:20 PM CDT
Moon 3:35 PM CDT (10/25) 3:01 AM CDT (10/25)
Length of Visible Light 11h 38m
Length of Day
10h 42m
Waxing Gibbous, 84% of the Moon is Illuminated
Oct 25
Waxing Gibbous
Oct 29
Full
Nov 6
Last Quarter
Nov 13
New
Nov 20
First Quarter

Hourly Weather History & Observations

Time (CDT) Temp. Dew Point Humidity Pressure Visibility Wind Dir Wind Speed Gust Speed Precip Events Conditions
12:35 AM 60.8 °F 53.6 °F 77% 29.97 in 10.0 mi South 8.1 mph - N/A   Clear
12:55 AM 59.0 °F 53.6 °F 82% 29.97 in 10.0 mi South 9.2 mph - N/A   Clear
1:35 AM 59.0 °F 53.6 °F 82% 29.96 in 10.0 mi South 8.1 mph - N/A   Clear
1:55 AM 59.0 °F 53.6 °F 82% 29.96 in 10.0 mi South 8.1 mph - N/A   Clear
2:35 AM 59.0 °F 51.8 °F 77% 29.95 in 10.0 mi South 6.9 mph - N/A   Clear
2:55 AM 57.2 °F 51.8 °F 82% 29.95 in 10.0 mi South 9.2 mph - N/A   Clear
3:15 AM 57.2 °F 51.8 °F 82% 29.94 in 10.0 mi South 9.2 mph - N/A   Clear
3:35 AM 57.2 °F 51.8 °F 82% 29.94 in 10.0 mi South 8.1 mph - N/A   Clear
3:55 AM 57.2 °F 51.8 °F 82% 29.95 in 10.0 mi South 8.1 mph - N/A   Clear
4:15 AM 57.2 °F 51.8 °F 82% 29.95 in 10.0 mi South 8.1 mph - N/A   Clear
4:35 AM 57.2 °F 51.8 °F 82% 29.94 in 10.0 mi South 8.1 mph - N/A   Clear
4:55 AM 57.2 °F 51.8 °F 82% 29.94 in 10.0 mi South 8.1 mph - N/A   Clear
5:15 AM 57.2 °F 51.8 °F 82% 29.94 in 10.0 mi South 9.2 mph - N/A   Clear
5:35 AM 57.2 °F 51.8 °F 82% 29.94 in 10.0 mi South 6.9 mph - N/A   Clear
5:55 AM 57.2 °F 51.8 °F 82% 29.94 in 10.0 mi South 8.1 mph - N/A   Clear
6:15 AM 57.2 °F 51.8 °F 82% 29.95 in 10.0 mi South 8.1 mph - N/A   Clear
6:55 AM 57.2 °F 51.8 °F 82% 29.95 in 10.0 mi South 10.4 mph - N/A   Clear
7:15 AM 57.2 °F 51.8 °F 82% 29.96 in 10.0 mi South 10.4 mph - N/A   Clear
7:35 AM 57.2 °F 51.8 °F 82% 29.97 in 10.0 mi SSW 8.1 mph - N/A   Clear
7:55 AM 59.0 °F 51.8 °F 77% 29.97 in 10.0 mi South 8.1 mph - N/A   Clear
8:35 AM 62.6 °F 53.6 °F 72% 29.98 in 10.0 mi South 11.5 mph - N/A   Clear
8:55 AM 64.4 °F 55.4 °F 73% 29.97 in 10.0 mi South 12.7 mph 18.4 mph N/A   Clear
9:15 AM 66.2 °F 55.4 °F 68% 29.97 in 10.0 mi SSW 13.8 mph 18.4 mph N/A   Clear
9:55 AM - - N/A% 29.96 in 10.0 mi SSW 11.5 mph - N/A   Clear
10:35 AM - - N/A% 29.95 in 10.0 mi South 18.4 mph 21.9 mph N/A   Clear
10:55 AM - - N/A% 29.95 in 10.0 mi SSW 19.6 mph 27.6 mph N/A   Clear
11:15 AM 73.4 °F 57.2 °F 57% 29.95 in 10.0 mi SSW 18.4 mph 25.3 mph N/A   Clear
11:35 AM 73.4 °F 57.2 °F 57% 29.94 in 10.0 mi South 16.1 mph - N/A   Clear
11:55 AM 73.4 °F 59.0 °F 61% 29.92 in 10.0 mi SSW 17.3 mph 23.0 mph N/A   Clear
12:15 PM 75.2 °F 59.0 °F 57% 29.91 in 10.0 mi SSW 21.9 mph 26.5 mph N/A   Clear
12:35 PM 75.2 °F 59.0 °F 57% 29.91 in 10.0 mi SSW 20.7 mph 27.6 mph N/A   Clear
12:55 PM 75.2 °F 57.2 °F 53% 29.89 in 10.0 mi SSW 19.6 mph 26.5 mph N/A   Clear
1:15 PM 75.2 °F 57.2 °F 53% 29.89 in 10.0 mi SW 20.7 mph 31.1 mph N/A   Clear
1:55 PM 77.0 °F 57.2 °F 50% 29.87 in 10.0 mi SSW 15.0 mph 25.3 mph N/A   Clear
2:15 PM 77.0 °F 59.0 °F 54% 29.87 in 10.0 mi SSW 21.9 mph 28.8 mph N/A   Clear
2:35 PM 77.0 °F 59.0 °F 54% 29.86 in 10.0 mi SSW 16.1 mph 31.1 mph N/A   Clear
2:55 PM 77.0 °F 57.2 °F 50% 29.85 in 10.0 mi South 21.9 mph 28.8 mph N/A   Clear
3:15 PM 77.0 °F 57.2 °F 50% 29.85 in 10.0 mi SSW 18.4 mph 27.6 mph N/A   Clear
3:35 PM 77.0 °F 57.2 °F 50% 29.84 in 10.0 mi South 21.9 mph 29.9 mph N/A   Partly Cloudy
3:55 PM - - N/A% 29.85 in 10.0 mi SSW 19.6 mph 28.8 mph N/A   Clear
4:15 PM - - N/A% 29.84 in 10.0 mi South 15.0 mph 26.5 mph N/A   Scattered Clouds
4:35 PM - - N/A% 29.84 in 10.0 mi SSW 19.6 mph 28.8 mph N/A   Partly Cloudy
4:55 PM 75.2 °F 57.2 °F 53% 29.84 in 10.0 mi South 17.3 mph 23.0 mph N/A   Clear
5:15 PM 73.4 °F 55.4 °F 53% 29.85 in 10.0 mi South 15.0 mph - N/A   Clear
5:35 PM - - N/A% 29.84 in 10.0 mi South 13.8 mph - N/A   Clear
5:55 PM - - N/A% 29.84 in 10.0 mi South 15.0 mph - N/A   Clear
6:15 PM - - N/A% 29.85 in 10.0 mi South 12.7 mph - N/A   Clear
6:55 PM 69.8 °F 55.4 °F 60% 29.86 in 10.0 mi South 11.5 mph - N/A   Clear
7:15 PM 69.8 °F 55.4 °F 60% 29.86 in 10.0 mi South 11.5 mph - N/A   Clear
7:35 PM 69.8 °F 55.4 °F 60% 29.86 in 10.0 mi South 11.5 mph - N/A   Clear
7:55 PM 68.0 °F 55.4 °F 64% 29.86 in 10.0 mi South 10.4 mph - N/A   Clear
8:15 PM 68.0 °F 55.4 °F 64% 29.86 in 10.0 mi South 11.5 mph - N/A   Clear
8:55 PM 68.0 °F 55.4 °F 64% 29.87 in 10.0 mi South 11.5 mph - N/A   Clear
9:15 PM 68.0 °F 55.4 °F 64% 29.87 in 10.0 mi South 11.5 mph - N/A   Mostly Cloudy
9:35 PM 69.8 °F 55.4 °F 60% 29.87 in 10.0 mi South 13.8 mph 19.6 mph N/A   Overcast
9:55 PM 69.8 °F 55.4 °F 60% 29.87 in 10.0 mi South 12.7 mph 23.0 mph N/A   Overcast
10:15 PM 69.8 °F 55.4 °F 60% 29.88 in 10.0 mi SW 15.0 mph 19.6 mph N/A   Overcast
10:35 PM 59.0 °F 51.8 °F 77% 29.91 in 10.0 mi WNW 21.9 mph 28.8 mph N/A   Mostly Cloudy
10:55 PM 55.4 °F 48.2 °F 77% 29.94 in 10.0 mi WNW 20.7 mph 25.3 mph N/A   Scattered Clouds
11:15 PM 53.6 °F 48.2 °F 82% 29.95 in 10.0 mi WNW 20.7 mph 28.8 mph N/A   Mostly Cloudy
11:35 PM 53.6 °F 48.2 °F 82% 29.96 in 10.0 mi WNW 17.3 mph - N/A   Overcast
11:55 PM 51.8 °F 46.4 °F 82% 29.98 in 10.0 mi WNW 20.7 mph - N/A   Overcast